Time,TemperatureF,DewpointF,PressureIn,WindDirection,WindDirectionDegrees,WindSpeedMPH,WindSpeedGustMPH,Humidity,HourlyPrecipIn,Conditions,Clouds,dailyrainin,SoftwareType,DateUTC
2013-03-05 01:00:00,30.0,18.0,29.88,NW,304,6.0,22.0,63,-99.99,,,-99.99,,2013-03-05 06:00:00,
2013-03-05 01:22:00,30.0,18.0,29.88,NW,304,6.0,22.0,63,-99.99,,,-99.99,,2013-03-05 06:22:00,
2013-03-05 01:32:00,30.0,18.0,29.88,NW,304,6.0,22.0,63,-99.99,,,-99.99,,2013-03-05 06:32:00,
2013-03-05 01:42:00,30.0,18.0,29.88,NW,304,6.0,22.0,63,-99.99,,,-99.99,,2013-03-05 06:42:00,
2013-03-05 01:52:00,30.0,18.0,29.88,NW,304,6.0,22.0,63,-99.99,,,-99.99,,2013-03-05 06:52:00,
2013-03-05 02:00:00,30.0,18.0,29.88,North,354,7.0,18.0,63,-99.99,,,-99.99,,2013-03-05 07:00:00,
2013-03-05 02:22:00,30.0,18.0,29.88,North,354,7.0,18.0,63,-99.99,,,-99.99,,2013-03-05 07:22:00,
2013-03-05 02:32:00,30.0,18.0,29.88,North,354,7.0,18.0,63,-99.99,,,-99.99,,2013-03-05 07:32:00,
2013-03-05 02:42:00,30.0,18.0,29.88,North,354,7.0,18.0,63,-99.99,,,-99.99,,2013-03-05 07:42:00,
2013-03-05 02:52:00,30.0,18.0,29.88,North,354,7.0,18.0,63,-99.99,,,-99.99,,2013-03-05 07:52:00,
2013-03-05 03:00:00,29.0,18.0,29.88,NNW,330,10.0,26.0,64,-99.99,,,-99.99,,2013-03-05 08:00:00,
2013-03-05 03:21:00,29.0,18.0,29.88,NNW,330,10.0,26.0,64,-99.99,,,-99.99,,2013-03-05 08:21:00,
2013-03-05 03:32:00,29.0,18.0,29.88,NNW,330,10.0,26.0,64,-99.99,,,-99.99,,2013-03-05 08:32:00,
2013-03-05 03:42:00,29.0,18.0,29.88,NNW,330,10.0,26.0,64,-99.99,,,-99.99,,2013-03-05 08:42:00,
2013-03-05 03:52:00,29.0,18.0,29.88,NNW,330,10.0,26.0,64,-99.99,,,-99.99,,2013-03-05 08:52:00,
2013-03-05 04:00:00,29.0,18.0,29.88,NW,319,12.0,23.0,66,-99.99,,,-99.99,,2013-03-05 09:00:00,
2013-03-05 04:21:00,29.0,18.0,29.88,NW,319,12.0,23.0,66,-99.99,,,-99.99,,2013-03-05 09:21:00,
2013-03-05 04:32:00,29.0,18.0,29.88,NW,319,12.0,23.0,66,-99.99,,,-99.99,,2013-03-05 09:32:00,
2013-03-05 04:43:00,29.0,18.0,29.88,NW,319,12.0,23.0,66,-99.99,,,-99.99,,2013-03-05 09:43:00,
2013-03-05 04:52:00,29.0,18.0,29.88,NW,319,12.0,23.0,66,-99.99,,,-99.99,,2013-03-05 09:52:00,
2013-03-05 05:00:00,28.0,18.0,29.91,NW,310,7.0,17.0,67,-99.99,,,-99.99,,2013-03-05 10:00:00,
2013-03-05 05:22:00,28.0,18.0,29.91,NW,310,7.0,17.0,67,-99.99,,,-99.99,,2013-03-05 10:22:00,
2013-03-05 05:32:00,28.0,18.0,29.91,NW,310,7.0,17.0,67,-99.99,,,-99.99,,2013-03-05 10:32:00,
2013-03-05 05:42:00,28.0,18.0,29.91,NW,310,7.0,17.0,67,-99.99,,,-99.99,,2013-03-05 10:42:00,
2013-03-05 05:52:00,28.0,18.0,29.91,NW,310,7.0,17.0,67,-99.99,,,-99.99,,2013-03-05 10:52:00,
2013-03-05 06:00:00,28.0,18.0,29.94,NNW,336,9.0,12.0,68,-99.99,,,-99.99,,2013-03-05 11:00:00,
2013-03-05 06:32:00,28.0,18.0,29.94,NNW,336,9.0,12.0,68,-99.99,,,-99.99,,2013-03-05 11:32:00,
2013-03-05 06:42:00,28.0,18.0,29.94,NNW,336,9.0,12.0,68,-99.99,,,-99.99,,2013-03-05 11:42:00,
2013-03-05 06:52:00,28.0,18.0,29.94,NNW,336,9.0,12.0,68,-99.99,,,-99.99,,2013-03-05 11:52:00,
2013-03-05 07:00:00,29.0,18.0,29.94,NW,314,1.0,20.0,65,-99.99,,,-99.99,,2013-03-05 12:00:00,
2013-03-05 07:32:00,29.0,18.0,29.94,NW,314,1.0,20.0,65,-99.99,,,-99.99,,2013-03-05 12:32:00,
2013-03-05 07:42:00,29.0,18.0,29.94,NW,314,1.0,20.0,65,-99.99,,,-99.99,,2013-03-05 12:42:00,
2013-03-05 07:53:00,29.0,18.0,29.94,NW,314,1.0,20.0,65,-99.99,,,-99.99,,2013-03-05 12:53:00,
2013-03-05 08:00:00,31.0,19.0,29.94,NW,311,3.0,18.0,61,-99.99,,,-99.99,,2013-03-05 13:00:00,
2013-03-05 08:22:00,31.0,19.0,29.94,NW,311,3.0,18.0,61,-99.99,,,-99.99,,2013-03-05 13:22:00,
2013-03-05 08:32:00,31.0,19.0,29.94,NW,311,3.0,18.0,61,-99.99,,,-99.99,,2013-03-05 13:32:00,
2013-03-05 08:42:00,31.0,19.0,29.94,NW,311,3.0,18.0,61,-99.99,,,-99.99,,2013-03-05 13:42:00,
2013-03-05 08:52:00,31.0,19.0,29.94,NW,311,3.0,18.0,61,-99.99,,,-99.99,,2013-03-05 13:52:00,
2013-03-05 09:00:00,33.0,19.0,29.97,NW,312,9.0,18.0,57,-99.99,,,-99.99,,2013-03-05 14:00:00,
2013-03-05 09:22:00,33.0,19.0,29.97,NW,312,9.0,18.0,57,-99.99,,,-99.99,,2013-03-05 14:22:00,
2013-03-05 09:32:00,33.0,19.0,29.97,NW,312,9.0,18.0,57,-99.99,,,-99.99,,2013-03-05 14:32:00,
2013-03-05 09:42:00,33.0,19.0,29.97,NW,312,9.0,18.0,57,-99.99,,,-99.99,,2013-03-05 14:42:00,
2013-03-05 09:52:00,33.0,19.0,29.97,NW,312,9.0,18.0,57,-99.99,,,-99.99,,2013-03-05 14:52:00,
2013-03-05 10:00:00,34.0,20.0,29.97,NE,46,3.0,16.0,55,-99.99,,,-99.99,,2013-03-05 15:00:00,
2013-03-05 10:22:00,34.0,20.0,29.97,NE,46,3.0,16.0,55,-99.99,,,-99.99,,2013-03-05 15:22:00,
2013-03-05 10:32:00,34.0,20.0,29.97,NE,46,3.0,16.0,55,-99.99,,,-99.99,,2013-03-05 15:32:00,
2013-03-05 10:42:00,34.0,20.0,29.97,NE,46,3.0,16.0,55,-99.99,,,-99.99,,2013-03-05 15:42:00,
2013-03-05 10:52:00,34.0,20.0,29.97,NE,46,3.0,16.0,55,-99.99,,,-99.99,,2013-03-05 15:52:00,
2013-03-05 11:00:00,37.0,20.0,29.94,NE,38,4.0,13.0,50,-99.99,,,-99.99,,2013-03-05 16:00:00,
2013-03-05 11:22:00,37.0,20.0,29.94,NE,38,4.0,13.0,50,-99.99,,,-99.99,,2013-03-05 16:22:00,
2013-03-05 11:32:00,37.0,20.0,29.94,NE,38,4.0,13.0,50,-99.99,,,-99.99,,2013-03-05 16:32:00,
2013-03-05 11:42:00,37.0,20.0,29.94,NE,38,4.0,13.0,50,-99.99,,,-99.99,,2013-03-05 16:42:00,
2013-03-05 11:52:00,37.0,20.0,29.94,NE,38,4.0,13.0,50,-99.99,,,-99.99,,2013-03-05 16:52:00,
2013-03-05 12:00:00,39.0,21.0,29.94,ENE,74,11.0,12.0,47,-99.99,,,-99.99,,2013-03-05 17:00:00,
2013-03-05 12:32:00,39.0,21.0,29.94,ENE,74,11.0,12.0,47,-99.99,,,-99.99,,2013-03-05 17:32:00,
2013-03-05 12:42:00,39.0,21.0,29.94,ENE,74,11.0,12.0,47,-99.99,,,-99.99,,2013-03-05 17:42:00,
2013-03-05 12:53:00,39.0,21.0,29.94,ENE,74,11.0,12.0,47,-99.99,,,-99.99,,2013-03-05 17:53:00,
2013-03-05 13:00:00,42.0,22.0,29.94,ENE,62,1.0,10.0,44,-99.99,,,-99.99,,2013-03-05 18:00:00,
2013-03-05 13:22:00,42.0,22.0,29.94,ENE,62,1.0,10.0,44,-99.99,,,-99.99,,2013-03-05 18:22:00,
2013-03-05 13:32:00,42.0,22.0,29.94,ENE,62,1.0,10.0,44,-99.99,,,-99.99,,2013-03-05 18:32:00,
2013-03-05 13:42:00,42.0,22.0,29.94,ENE,62,1.0,10.0,44,-99.99,,,-99.99,,2013-03-05 18:42:00,
2013-03-05 13:53:00,42.0,22.0,29.94,ENE,62,1.0,10.0,44,-99.99,,,-99.99,,2013-03-05 18:53:00,
2013-03-05 14:00:00,43.0,22.0,29.91,ESE,116,2.0,10.0,44,-99.99,,,-99.99,,2013-03-05 19:00:00,
2013-03-05 14:22:00,43.0,22.0,29.91,ESE,116,2.0,10.0,44,-99.99,,,-99.99,,2013-03-05 19:22:00,
2013-03-05 14:32:00,43.0,22.0,29.91,ESE,116,2.0,10.0,44,-99.99,,,-99.99,,2013-03-05 19:32:00,
2013-03-05 14:42:00,43.0,22.0,29.91,ESE,116,2.0,10.0,44,-99.99,,,-99.99,,2013-03-05 19:42:00,
2013-03-05 14:52:00,43.0,22.0,29.91,ESE,116,2.0,10.0,44,-99.99,,,-99.99,,2013-03-05 19:52:00,
2013-03-05 15:00:00,45.0,22.0,29.91,ENE,75,0.0,8.0,40,-99.99,,,-99.99,,2013-03-05 20:00:00,
2013-03-05 15:22:00,45.0,22.0,29.91,ENE,75,0.0,8.0,40,-99.99,,,-99.99,,2013-03-05 20:22:00,
2013-03-05 15:32:00,45.0,22.0,29.91,ENE,75,0.0,8.0,40,-99.99,,,-99.99,,2013-03-05 20:32:00,
2013-03-05 15:42:00,45.0,22.0,29.91,ENE,75,0.0,8.0,40,-99.99,,,-99.99,,2013-03-05 20:42:00,
2013-03-05 15:52:00,45.0,22.0,29.91,ENE,75,0.0,8.0,40,-99.99,,,-99.99,,2013-03-05 20:52:00,
2013-03-05 16:00:00,45.0,22.0,29.91,SE,131,0.0,9.0,41,-99.99,,,-99.99,,2013-03-05 21:00:00,
2013-03-05 16:32:00,45.0,22.0,29.91,SE,131,0.0,9.0,41,-99.99,,,-99.99,,2013-03-05 21:32:00,
2013-03-05 16:42:00,45.0,22.0,29.91,SE,131,0.0,9.0,41,-99.99,,,-99.99,,2013-03-05 21:42:00,
2013-03-05 16:52:00,45.0,22.0,29.91,SE,131,0.0,9.0,41,-99.99,,,-99.99,,2013-03-05 21:52:00,
2013-03-05 17:00:00,44.0,21.0,29.88,ENE,78,8.0,12.0,40,-99.99,,,-99.99,,2013-03-05 22:00:00,
2013-03-05 17:22:00,44.0,21.0,29.88,ENE,78,8.0,12.0,40,-99.99,,,-99.99,,2013-03-05 22:22:00,
2013-03-05 17:32:00,44.0,21.0,29.88,ENE,78,8.0,12.0,40,-99.99,,,-99.99,,2013-03-05 22:32:00,
2013-03-05 17:42:00,44.0,21.0,29.88,ENE,78,8.0,12.0,40,-99.99,,,-99.99,,2013-03-05 22:42:00,
2013-03-05 17:52:00,44.0,21.0,29.88,ENE,78,8.0,12.0,40,-99.99,,,-99.99,,2013-03-05 22:52:00,
2013-03-05 18:00:00,42.0,21.0,29.91,ENE,75,4.0,11.0,43,-99.99,,,-99.99,,2013-03-05 23:00:00,
2013-03-05 18:22:00,42.0,21.0,29.91,ENE,75,4.0,11.0,43,-99.99,,,-99.99,,2013-03-05 23:22:00,
2013-03-05 18:32:00,42.0,21.0,29.91,ENE,75,4.0,11.0,43,-99.99,,,-99.99,,2013-03-05 23:32:00,
2013-03-05 18:42:00,42.0,21.0,29.91,ENE,75,4.0,11.0,43,-99.99,,,-99.99,,2013-03-05 23:42:00,
2013-03-05 18:53:00,42.0,21.0,29.91,ENE,75,4.0,11.0,43,-99.99,,,-99.99,,2013-03-05 23:53:00,
2013-03-05 19:00:00,39.0,21.0,29.91,ESE,118,4.0,6.0,48,-99.99,,,-99.99,,2013-03-06 00:00:00,
2013-03-05 19:22:00,39.0,21.0,29.91,ESE,118,4.0,6.0,48,-99.99,,,-99.99,,2013-03-06 00:22:00,
2013-03-05 19:32:00,39.0,21.0,29.91,ESE,118,4.0,6.0,48,-99.99,,,-99.99,,2013-03-06 00:32:00,
2013-03-05 19:42:00,39.0,21.0,29.91,ESE,118,4.0,6.0,48,-99.99,,,-99.99,,2013-03-06 00:42:00,
2013-03-05 19:52:00,39.0,21.0,29.91,ESE,118,4.0,6.0,48,-99.99,,,-99.99,,2013-03-06 00:52:00,
2013-03-05 20:00:00,37.0,23.0,29.91,ESE,102,8.0,10.0,54,-99.99,,,-99.99,,2013-03-06 01:00:00,
2013-03-05 20:22:00,37.0,23.0,29.91,ESE,102,8.0,10.0,54,-99.99,,,-99.99,,2013-03-06 01:22:00,
2013-03-05 20:32:00,37.0,23.0,29.91,ESE,102,8.0,10.0,54,-99.99,,,-99.99,,2013-03-06 01:32:00,
2013-03-05 20:42:00,37.0,23.0,29.91,ESE,102,8.0,10.0,54,-99.99,,,-99.99,,2013-03-06 01:42:00,
2013-03-05 20:52:00,37.0,23.0,29.91,ESE,102,8.0,10.0,54,-99.99,,,-99.99,,2013-03-06 01:52:00,
2013-03-05 21:00:00,36.0,24.0,29.91,SSE,150,6.0,17.0,61,-99.99,,,-99.99,,2013-03-06 02:00:00,
2013-03-05 21:22:00,36.0,24.0,29.91,SSE,150,6.0,17.0,61,-99.99,,,-99.99,,2013-03-06 02:22:00,
2013-03-05 21:32:00,36.0,24.0,29.91,SSE,150,6.0,17.0,61,-99.99,,,-99.99,,2013-03-06 02:32:00,
2013-03-05 21:42:00,36.0,24.0,29.91,SSE,150,6.0,17.0,61,-99.99,,,-99.99,,2013-03-06 02:42:00,
2013-03-05 21:52:00,36.0,24.0,29.91,SSE,150,6.0,17.0,61,-99.99,,,-99.99,,2013-03-06 02:52:00,
2013-03-05 22:00:00,35.0,24.0,29.91,SE,136,4.0,9.0,65,-99.99,,,-99.99,,2013-03-06 03:00:00,
2013-03-05 22:32:00,35.0,24.0,29.91,SE,136,4.0,9.0,65,-99.99,,,-99.99,,2013-03-06 03:32:00,
2013-03-05 22:42:00,35.0,24.0,29.91,SE,136,4.0,9.0,65,-99.99,,,-99.99,,2013-03-06 03:42:00,
2013-03-05 22:53:00,35.0,24.0,29.91,SE,136,4.0,9.0,65,-99.99,,,-99.99,,2013-03-06 03:53:00,
2013-03-05 23:00:00,33.0,24.0,29.91,East,95,5.0,14.0,69,-99.99,,,-99.99,,2013-03-06 04:00:00,
2013-03-05 23:32:00,33.0,24.0,29.91,East,95,5.0,14.0,69,-99.99,,,-99.99,,2013-03-06 04:32:00,
2013-03-05 23:42:00,33.0,24.0,29.91,East,95,5.0,14.0,69,-99.99,,,-99.99,,2013-03-06 04:42:00,
2013-03-05 23:52:00,33.0,24.0,29.91,East,95,5.0,14.0,69,-99.99,,,-99.99,,2013-03-06 04:52:00,